Regional Weather Roundup
Issued by NWS Cleveland, OH

Home | Current Version | Previous Version | Graphics & Text | Print | Product List | Glossary On
Versions: 1 2 3 4 5 6 7 8 9 10 11 12 13 14 15 16 17 18 19 20 21 22 23 24 25 26 27 28 29 30 31 32 33 34 35 36 37 38 39 40 41 42 43 44 45 46 47 48 49 50
000
ASUS41 KCLE 250200
RWRCLE
OHIO REGIONAL WEATHER ROUNDUP
NATIONAL WEATHER SERVICE WILMINGTON, OH
1000 PM EDT THU JUL 24 2014

NOTE: "FAIR" INDICATES FEW OR NO CLOUDS BELOW 12,000 FEET WITH NO
SIGNIFICANT WEATHER AND/OR OBSTRUCTIONS TO VISIBILITY.

OHZ001>008-015>018-024>027-034-035-043-044-250300-
   NORTHWEST OHIO

CITY           SKY/WX    TMP DP  RH WIND       PRES   REMARKS
DEFIANCE       PTCLDY    62  54  74 N3        30.08R
FINDLAY        CLEAR     64  52  64 SE5       30.08R
TOLEDO EXPRESS MOCLDY    61  54  77 CALM      30.07S
TOLEDO METCALF CLEAR     64  53  67 SE5       30.08R
LIMA           CLEAR     61  53  75 SE6       30.08F
$$

OHZ009>014-019>023-028>033-038-089-250300-
   NORTHEAST OHIO

CITY           SKY/WX    TMP DP  RH WIND       PRES   REMARKS
CLE-HOPKINS    CLEAR     65  50  58 N5        30.10R
CLE-LAKEFRONT  CLEAR     68  52  56 N8        30.07R
CUY CO. ARPT   CLEAR     61  54  77 CALM      30.08R
LORAIN-ELYRIA  CLEAR     62  52  69 NW3       30.09R
ASHTABULA      CLEAR     57  52  83 CALM      30.07R
AKRON-CANTON   CLEAR     60  48  64 N6        30.07R
WOOSTER        NOT AVBL
MANSFIELD      CLEAR     58  51  78 NW3       30.10R
YOUNGSTOWN     CLEAR     59  50  72 N6        30.06R
$$

OHZ042-051>053-060>062-070>072-077>081-250300-
  SOUTHWEST OHIO

CITY           SKY/WX    TMP DP  RH WIND       PRES   REMARKS
CINC-COVINGTON MOCLDY    70  54  56 N8        30.06R
CINC-LUNKEN    PTCLDY    64  58  80 CALM      30.06R
HAMILTON       MOCLDY    67  55  65 N6        30.07R
DAYTON         NOT AVBL
WRIGHT-PAT AFB CLEAR     65  55  69 N7        30.08R
DAYTON GENERAL CLEAR     64  52  64 N6        30.07R
WILMINGTON     CLEAR     64  54  69 N8        30.08R
$$

OHZ036-037-039>041-045>050-054>059-063>069-073>076-082>088-250300-
  CENTRAL AND SOUTHEAST OHIO

CITY           SKY/WX    TMP DP  RH WIND       PRES   REMARKS
COLUMBUS       MOCLDY    69  51  52 N12       30.07R
OSU AIRPORT    CLEAR     63  50  62 N8        30.08R
BOLTON FIELD   NOT AVBL
RICKENBACK AFB NOT AVBL
NEWARK         CLEAR     64  53  67 N3        30.06R
MARION         CLEAR     60  52  74 N5        30.09R
LANCASTER      MOCLDY    66  56  70 N5        30.06R
ZANESVILLE     CLEAR     63  52  67 N6        30.06R
NEW PHILLY     CLEAR     61  53  75 N3        30.06R
$$



USA.gov is the U.S. government's official web portal to all federal, state and local government web resources and services.